EW1109 Weather Reports


Display with metric or nautical units.
time (UTC)temp
F
wind
direction
speed
MPH
gust
MPH
rain 1hr
in
rain 24hr
in
rain mn
in
humidity
%
barometer
mb
20200401093023 37 115 0.0 3.0 0.00 0.00 0.00 88 1019.2
20200401084519 37 99 0.0 3.0 0.00 0.00 0.00 87 1018.9
20200401083049 37 84 0.0 3.0 0.00 0.00 0.00 88 1018.9
20200401081520 37 32 0.0 3.0 0.00 0.00 0.00 87 1018.9
20200401074520 37 17 0.0 3.0 0.00 0.00 0.00 87 1019.1
20200401073035 37 360 0.0 4.0 0.00 0.00 0.00 86 1019.2
20200401071506 37 28 0.0 4.0 0.00 0.00 0.00 86 1019.2
20200401064530 37 20 0.0 6.0 0.00 0.00 0.00 86 1019.3
20200401063019 37 66 0.0 2.0 0.00 0.00 0.00 85 1019.3
20200401061530 37 15 1.0 5.0 0.00 0.00 0.00 85 1019.3
20200401054522 37 19 3.0 6.0 0.00 0.00 0.00 85 1019.4
20200401053002 37 33 1.0 5.0 0.00 0.00 0.00 86 1019.4
20200401051504 37 13 1.0 4.0 0.00 0.00 0.00 86 1019.4
20200401044702 37 37 3.0 5.0 0.00 0.00 0.00 86 1019.6
20200401043143 37 9 3.0 6.0 0.00 0.00 0.00 86 1019.7
20200401041646 37 22 2.0 6.0 0.00 0.00 0.00 86 1019.8
20200401034802 37 11 2.0 6.0 0.00 0.00 0.00 89 1019.8
20200401033205 38 21 2.0 5.0 0.00 0.00 0.00 87 1019.9
20200401031630 38 10 1.0 7.0 0.00 0.00 0.00 85 1019.9
20200401024747 37 22 1.0 4.0 0.00 0.00 0.00 86 1020.0
20200401023115 37 53 2.0 5.0 0.00 0.00 0.00 87 1020.0
20200401021632 37 19 1.0 4.0 0.00 0.00 0.00 87 1020.1
20200401014621 37 40 1.0 5.0 0.00 0.00 0.00 89 1020.1
20200401013124 37 13 0.0 3.0 0.00 0.00 0.00 89 1020.0
20200401011644 37 15 1.0 4.0 0.00 0.00 0.00 89 1020.0
20200401004654 37 15 0.0 1.0 0.00 0.00 0.00 92 1020.1
20200401003158 37 15 0.0 1.0 0.00 0.00 0.00 92 1020.0
20200401001600 37 15 0.0 2.0 0.00 0.00 0.00 92 1019.9
20200331234558 37 15 0.0 3.0 0.00 0.00 0.00 90 1019.9
20200331233140 38 15 1.0 6.0 0.00 0.00 0.00 88 1019.9
20200331231634 38 19 3.0 7.0 0.00 0.00 0.00 86 1019.8
20200331224628 38 27 3.0 5.0 0.00 0.00 0.00 85 1019.6
20200331223226 38 15 3.0 9.0 0.00 0.00 0.00 84 1019.4
20200331221651 38 17 1.0 7.0 0.00 0.00 0.00 84 1019.4
20200331214619 38 87 2.0 9.0 0.00 0.00 0.00 84 1019.4
20200331213147 38 26 2.0 8.0 0.00 0.00 0.00 84 1019.5
20200331211710 38 39 2.0 7.0 0.00 0.00 0.00 84 1019.5
20200331204622 39 355 4.0 10.0 0.00 0.00 0.00 82 1019.5
20200331203145 39 55 2.0 10.0 0.00 0.00 0.00 82 1019.6
20200331201615 38 20 2.0 9.0 0.00 0.00 0.00 82 1019.6
20200331194618 38 46 5.0 9.0 0.00 0.00 0.00 83 1019.7
20200331193122 38 12 4.0 8.0 0.00 0.00 0.00 82 1019.8
20200331191653 38 51 2.0 8.0 0.00 0.00 0.00 81 1019.9
20200331184615 38 11 2.0 8.0 0.00 0.00 0.00 81 1020.0
20200331183130 38 33 3.0 7.0 0.00 0.00 0.00 81 1020.2
20200331181601 38 92 1.0 8.0 0.00 0.00 0.00 82 1020.2
20200331174607 37 5 3.0 8.0 0.00 0.00 0.00 81 1020.5
20200331173104 38 30 4.0 9.0 0.00 0.00 0.00 81 1020.5
20200331171609 37 360 2.0 9.0 0.00 0.00 0.00 82 1020.4
20200331164704 37 17 2.0 7.0 0.00 0.00 0.00 83 1020.5
20200331163120 37 349 1.0 9.0 0.00 0.00 0.00 83 1020.6
20200331161636 36 65 4.0 7.0 0.00 0.00 0.00 83 1020.7
20200331154544 36 360 5.0 11.0 0.00 0.00 0.00 83 1021.0
20200331153107 36 9 3.0 9.0 0.00 0.00 0.00 84 1021.1
20200331151539 36 34 4.0 9.0 0.00 0.00 0.00 84 1021.2
20200331144619 36 14 3.0 10.0 0.00 0.00 0.00 84 1021.2
20200331143048 35 13 2.0 8.0 0.00 0.00 0.00 84 1021.1
20200331141630 35 24 2.0 9.0 0.00 0.00 0.00 85 1021.1
20200331134538 35 18 3.0 10.0 0.00 0.00 0.00 86 1021.2
20200331133040 34 45 3.0 7.0 0.00 0.00 0.00 86 1021.2
20200331131529 34 21 1.0 6.0 0.00 0.00 0.00 86 1021.3
20200331124525 33 32 2.0 7.0 0.00 0.00 0.00 86 1021.5
20200331123026 33 19 1.0 7.0 0.00 0.00 0.00 86 1021.6
20200331121556 33 19 2.0 8.0 0.00 0.00 0.00 86 1021.6
20200331114636 33 12 2.0 11.0 0.00 0.00 0.00 87 1021.6
20200331113040 33 5 5.0 8.0 0.00 0.00 0.00 87 1021.5
20200331111602 33 18 3.0 8.0 0.00 0.00 0.00 87 1021.5
20200331104623 33 16 4.0 10.0 0.00 0.00 0.00 87 1021.5
20200331103102 33 24 3.0 7.0 0.00 0.00 0.00 87 1021.6
20200331101525 33 23 5.0 9.0 0.00 0.00 0.00 87 1021.6
20200331094625 33 33 4.0 8.0 0.00 0.00 0.00 88 1021.7
20200331093042 33 360 5.0 11.0 0.00 0.00 0.00 88 1021.7